timestamp,surface_pressure_avg,surface_temp_avg,battery_voltage,lat,long
2022-01-17 00:09:00+00:00,332.228,3.0,12.73,47.84626,-54.09684
2022-01-17 00:19:00+00:00,328.5780000000001,3.0,12.65,47.84626,-54.09684
2022-01-17 00:29:00+00:00,337.3096,3.0,12.65,47.84626,-54.09684
2022-01-17 00:39:00+00:00,330.4913,3.0,12.65,47.84626,-54.09684
2022-01-17 00:49:00+00:00,317.4697,3.0,12.65,47.84626,-54.09684
2022-01-17 00:59:00+00:00,318.7664,3.0,12.65,47.84626,-54.09684
2022-01-17 01:09:00+00:00,323.2631,3.07,12.65,47.84626,-54.09684
2022-01-17 01:19:00+00:00,308.5914,3.0,12.65,47.84626,-54.09684
2022-01-17 01:29:00+00:00,297.0997,2.89,12.65,47.84626,-54.09684
2022-01-17 01:39:00+00:00,303.9097,2.8,12.65,47.84626,-54.09684
2022-01-17 01:49:00+00:00,304.6247,2.86,12.65,47.84626,-54.09684
2022-01-17 01:59:00+00:00,288.1896,2.9,12.65,47.84626,-54.09684
2022-01-17 02:09:00+00:00,287.9931,3.01,12.65,47.84626,-54.09684
2022-01-17 02:19:00+00:00,295.7581,3.1,12.65,47.84626,-54.09684
2022-01-17 02:29:00+00:00,286.8997,3.09,12.65,47.84626,-54.09684
2022-01-17 02:39:00+00:00,274.1514,3.1,12.65,47.84626,-54.09684
2022-01-17 02:49:00+00:00,277.5614,3.1,12.65,47.84626,-54.09684
2022-01-17 02:59:00+00:00,278.2848,3.11,12.65,47.84626,-54.09684
2022-01-17 03:09:00+00:00,258.9564,3.1,12.65,47.84626,-54.09684
2022-01-17 03:19:00+00:00,254.4214,3.1,12.65,47.84626,-54.09684
2022-01-17 03:29:00+00:00,262.5564,3.1,12.65,47.84626,-54.09684
2022-01-17 03:39:00+00:00,256.3381,3.0,12.65,47.84626,-54.09684
2022-01-17 03:49:00+00:00,240.0714,3.0,12.65,47.84626,-54.09684
2022-01-17 03:59:00+00:00,243.2431,3.0,12.65,47.84626,-54.09684
2022-01-17 04:09:00+00:00,242.1181,3.0,12.65,47.84626,-54.09684
2022-01-17 04:19:00+00:00,232.9631,2.91,12.65,47.84626,-54.09684
2022-01-17 04:29:00+00:00,234.1115,2.9,12.65,47.84626,-54.09684
2022-01-17 04:39:00+00:00,241.7248,2.9,12.65,47.84626,-54.09684
2022-01-17 04:49:00+00:00,237.1647,2.9,12.65,47.84626,-54.09684
2022-01-17 04:59:00+00:00,231.5797,2.64,12.65,47.84626,-54.09684
2022-01-17 05:09:00+00:00,242.9631,2.86,12.65,47.84626,-54.09684
2022-01-17 05:19:00+00:00,247.5497,3.1,12.65,47.84626,-54.09684
2022-01-17 05:29:00+00:00,242.3281,2.9,12.65,47.84626,-54.09684
2022-01-17 05:39:00+00:00,239.3198,2.8,12.65,47.84626,-54.09684
2022-01-17 05:49:00+00:00,242.8397,2.8,12.65,47.84626,-54.09684
2022-01-17 05:59:00+00:00,242.0264,2.79,12.65,47.84626,-54.09684
2022-01-17 06:09:00+00:00,241.1631,3.0,12.65,47.84626,-54.09684
2022-01-17 06:19:00+00:00,244.2047,3.1,12.65,47.84626,-54.09684
2022-01-17 06:29:00+00:00,247.8497,3.1,12.65,47.84626,-54.09684
2022-01-17 06:39:00+00:00,255.2381,2.9,12.65,47.84626,-54.09684
2022-01-17 06:49:00+00:00,261.8531,2.88,12.65,47.84626,-54.09684
2022-01-17 06:59:00+00:00,265.4147,2.9,12.65,47.84626,-54.09684
2022-01-17 07:09:00+00:00,265.8347,2.6,12.65,47.84626,-54.09684
2022-01-17 07:19:00+00:00,269.7114,2.5,12.65,47.84626,-54.09684
2022-01-17 07:29:00+00:00,270.2881,2.96,12.65,47.84626,-54.09684
2022-01-17 07:39:00+00:00,273.6214,2.8,12.65,47.84626,-54.09684
2022-01-17 07:49:00+00:00,278.4381,2.97,12.65,47.84626,-54.09684
2022-01-17 07:59:00+00:00,287.9547,3.1,12.65,47.84626,-54.09684
2022-01-17 08:09:00+00:00,293.908,2.93,12.65,47.84626,-54.09684
2022-01-17 08:19:00+00:00,298.4963,2.61,12.57,47.84626,-54.09684
2022-01-17 08:29:00+00:00,305.4131,2.75,12.57,47.84626,-54.09684
2022-01-17 08:39:00+00:00,310.3397,2.9,12.57,47.84626,-54.09684
2022-01-17 08:49:00+00:00,313.863,2.8,12.57,47.84626,-54.09684
2022-01-17 08:59:00+00:00,319.0696,2.78,12.57,47.84626,-54.09684
2022-01-17 09:09:00+00:00,322.823,2.98,12.57,47.84626,-54.09684
2022-01-17 09:19:00+00:00,331.8281,2.8,12.57,47.84626,-54.09684
2022-01-17 09:29:00+00:00,339.4246,3.08,12.57,47.84626,-54.09684
2022-01-17 09:39:00+00:00,344.9429,2.73,12.57,47.84626,-54.09684
2022-01-17 09:49:00+00:00,353.043,2.4,12.57,47.84626,-54.09684
2022-01-17 09:59:00+00:00,363.2279,2.95,12.57,47.84626,-54.09684
2022-01-17 10:09:00+00:00,368.5262,3.18,12.57,47.84626,-54.09684
2022-01-17 10:19:00+00:00,367.8646,3.2,12.57,47.84626,-54.09684
2022-01-17 10:29:00+00:00,376.5546,3.2,12.57,47.84626,-54.09684
2022-01-17 10:39:00+00:00,383.1262,3.2,12.57,47.84626,-54.09684
2022-01-17 10:49:00+00:00,381.5246,3.2,12.57,47.84626,-54.09684
2022-01-17 10:59:00+00:00,383.788,3.2,12.57,47.84626,-54.09684
2022-01-17 11:09:00+00:00,380.5113,3.2,12.57,47.84626,-54.09684
2022-01-17 11:19:00+00:00,378.3779,3.11,12.57,47.84626,-54.09684
2022-01-17 11:29:00+00:00,383.2879,3.1,12.57,47.84626,-54.09684
2022-01-17 11:39:00+00:00,380.5162,3.13,12.57,47.84626,-54.09684
2022-01-17 11:49:00+00:00,378.2813,3.1,12.57,47.84626,-54.09684
2022-01-17 11:59:00+00:00,377.9763,3.12,12.57,47.84626,-54.09684
2022-01-17 12:09:00+00:00,382.7345,3.18,12.57,47.84626,-54.09684
2022-01-17 12:19:00+00:00,374.968,3.17,14.16,47.84626,-54.09684
2022-01-17 12:29:00+00:00,365.6298,3.12,14.16,47.84626,-54.09684
2022-01-17 12:39:00+00:00,367.8712,3.14,14.16,47.84626,-54.09684
2022-01-17 12:49:00+00:00,367.4498,3.19,14.16,47.84626,-54.09684
2022-01-17 12:59:00+00:00,359.1579,3.2,14.16,47.84626,-54.09684
2022-01-17 13:09:00+00:00,351.8412,3.2,14.16,47.84626,-54.09684
2022-01-17 13:19:00+00:00,350.9513,3.2,14.8,47.84626,-54.09684
2022-01-17 13:29:00+00:00,347.56300000000016,3.2,14.8,47.84626,-54.09684
2022-01-17 13:39:00+00:00,330.098,3.2,14.8,47.84626,-54.09684
2022-01-17 13:49:00+00:00,326.9413,3.2,14.8,47.84626,-54.09684
2022-01-17 13:59:00+00:00,329.9714,3.2,14.8,47.84626,-54.09684
2022-01-17 14:09:00+00:00,314.928,3.1,14.8,47.84626,-54.09684
2022-01-17 14:19:00+00:00,299.2963,3.0,14.8,47.84626,-54.09684
2022-01-17 14:29:00+00:00,305.988,3.08,14.8,47.84626,-54.09684
2022-01-17 14:39:00+00:00,305.3014,3.1,14.8,47.84626,-54.09684
2022-01-17 14:49:00+00:00,287.1297,2.9,14.8,47.84626,-54.09684
2022-01-17 14:59:00+00:00,277.8914,2.88,14.8,47.84626,-54.09684
2022-01-17 15:09:00+00:00,281.6965,3.1,14.8,47.84626,-54.09684
2022-01-17 15:19:00+00:00,270.0881,2.9,14.72,47.84626,-54.09684
2022-01-17 15:29:00+00:00,256.4781,2.7,14.72,47.84626,-54.09684
2022-01-17 15:39:00+00:00,254.9514,2.98,14.72,47.84626,-54.09684
2022-01-17 15:49:00+00:00,248.0531,3.2,14.72,47.84626,-54.09684
2022-01-17 15:59:00+00:00,232.8831,2.93,14.72,47.84626,-54.09684
2022-01-17 16:09:00+00:00,225.7598,2.77,14.72,47.84626,-54.09684
2022-01-17 16:19:00+00:00,227.0515,2.94,14.64,47.84626,-54.09684
2022-01-17 16:29:00+00:00,222.6431,3.09,14.64,47.84626,-54.09684
2022-01-17 16:39:00+00:00,212.3914,2.99,14.64,47.84626,-54.09684
2022-01-17 16:49:00+00:00,208.9598,2.7,14.64,47.84626,-54.09684
2022-01-17 16:59:00+00:00,210.3498,2.7,14.64,47.84626,-54.09684
2022-01-17 17:09:00+00:00,201.3448,2.7,14.64,47.84626,-54.09684
2022-01-17 17:19:01+00:00,187.9015,2.78,14.56,47.84626,-54.09684
2022-01-17 17:29:01+00:00,187.6298,2.89,14.56,47.84626,-54.09684
2022-01-17 17:39:01+00:00,188.8798,2.9,14.56,47.84626,-54.09684
2022-01-17 17:49:01+00:00,186.9348,2.98,14.56,47.84626,-54.09684
2022-01-17 17:59:01+00:00,187.6282,3.0,14.56,47.84626,-54.09684
2022-01-17 18:09:01+00:00,188.9198,3.09,14.56,47.84626,-54.09684
2022-01-17 18:19:00+00:00,188.2148,3.1,14.4,47.84626,-54.09684
2022-01-17 18:29:00+00:00,189.9465,3.12,14.4,47.84626,-54.09684
2022-01-17 18:39:00+00:00,191.9615,3.18,14.4,47.84626,-54.09684
2022-01-17 18:49:00+00:00,191.6265,3.2,14.4,47.84626,-54.09684
2022-01-17 18:59:00+00:00,192.4498,3.2,14.4,47.84626,-54.09684
2022-01-17 19:09:00+00:00,195.4364,3.2,14.4,47.84626,-54.09684
2022-01-17 19:19:00+00:00,186.9164,3.2,14.08,47.84626,-54.09684
2022-01-17 19:29:00+00:00,182.8198,3.2,14.08,47.84626,-54.09684
2022-01-17 19:39:00+00:00,198.2997,3.2,14.08,47.84626,-54.09684
2022-01-17 19:49:00+00:00,208.7681,3.2,14.08,47.84626,-54.09684
2022-01-17 19:59:00+00:00,205.6148,3.2,14.08,47.84626,-54.09684
2022-01-17 20:09:00+00:00,207.0031,3.22,14.08,47.84626,-54.09684
2022-01-17 20:19:01+00:00,222.8714,3.23,13.53,47.84626,-54.09684
2022-01-17 20:29:01+00:00,237.6997,3.23,13.53,47.84626,-54.09684
2022-01-17 20:39:01+00:00,240.4847,3.25,13.53,47.84626,-54.09684
2022-01-17 20:49:01+00:00,241.6814,3.2,13.53,47.84626,-54.09684
2022-01-17 20:59:01+00:00,246.6064,3.1,13.53,47.84626,-54.09684
2022-01-17 21:09:01+00:00,251.9181,3.1,13.53,47.84626,-54.09684
2022-01-17 21:19:00+00:00,250.1048,3.0,13.13,47.84626,-54.09684
2022-01-17 21:29:00+00:00,252.9715,2.9,13.13,47.84626,-54.09684
2022-01-17 21:39:00+00:00,260.3231,2.9,13.13,47.84626,-54.09684
2022-01-17 21:49:00+00:00,269.3447,2.8,13.13,47.84626,-54.09684
2022-01-17 21:59:00+00:00,277.6531,2.88,13.13,47.84626,-54.09684
2022-01-17 22:09:00+00:00,286.0297,3.21,13.13,47.84626,-54.09684
2022-01-17 22:19:01+00:00,288.6431,3.25,12.81,47.84626,-54.09684
2022-01-17 22:29:01+00:00,299.9813,3.24,12.81,47.84626,-54.09684
2022-01-17 22:39:01+00:00,310.8931,3.29,12.81,47.84626,-54.09684
2022-01-17 22:49:01+00:00,309.7363,3.25,12.81,47.84626,-54.09684
2022-01-17 22:59:01+00:00,298.053,3.2,12.81,47.84626,-54.09684
2022-01-17 23:09:01+00:00,300.803,3.23,12.81,47.84626,-54.09684
2022-01-17 23:19:00+00:00,305.9764,3.3,12.65,47.84626,-54.09684
2022-01-17 23:29:00+00:00,307.343,2.8,12.65,47.84626,-54.09684
2022-01-17 23:39:00+00:00,305.1613,2.58,12.65,47.84626,-54.09684
2022-01-17 23:49:00+00:00,319.4246,2.74,12.65,47.84626,-54.09684
2022-01-17 23:59:00+00:00,327.7646,2.85,12.65,47.84626,-54.09684
